www.pogodaiklimat.ru

Погода и климат >> Архив погоды >> Япония >> Овасе


ПОГОДА в Овасе

  • Прогноз погоды в Овасе
  • Монитор погоды в Овасе

АРХИВ ПОГОДЫ в Овасе

Время (UTC), дата Ветер
(напр.,м/с)
 
Видим.   Явления Облачность Т
(С)
Тd
(С)
f
(%)
Тe
(С)
Тes
(С)
Комфортность P
(гПа)
Po
(гПа)
Тmin
(С)
Tmax
(С)
R
(мм)
R24
(мм)
S
(см)
22 8.06 З 1 20 км н/о +20.5 +15.7 74 +25 +25 комфорт 1005.9 1003.9
23 8.06 СЗ 1 20 км н/о +23.4 +16.5 65 +28 +28 душно 1005.7 1003.7
00 9.06 В 6 20 км н/о +23.6 +16.7 65 +27 +27 жарко 1005.8 1003.8 +18.6
01 9.06 В 5 20 км н/о +23.3 +15.1 60 +27 +27 душно 1005.8 1003.8
02 9.06 В 6 20 км н/о +24.7 +15.6 57 +28 +28 душно 1005.8 1003.8
03 9.06 В 6 20 км н/о +24.5 +16.2 60 +28 +28 душно 1005.1 1003.1
04 9.06 В 5 20 км н/о +24.7 +19.3 72 +30 +30 очень
душно
1005.1 1003.2
05 9.06 СВ 6 20 км н/о +23.5 +19.0 76 +28 +28 душно 1004.7 1002.7
06 9.06 СВ 4 20 км н/о +22.6 +18.6 78 +28 +28 душно 1005.0 1003.0
07 9.06 СВ 4 9000 м слаб. дождь н/о +21.4 +19.2 87 +26 +26 душно 1004.8 1002.8
08 9.06 СВ 3 13 км слаб. дождь н/о +20.8 +19.3 91 +26 +26 душно 1004.7 1002.7
09 9.06 СЗ 2 5000 м слаб. дождь н/о +20.3 +18.8 91 +25 +25 комфорт 1004.8 1002.8
10 9.06 ЮВ 2 9000 м слаб. дождь н/о +20.2 +19.6 96 +25 +25 комфорт 1004.5 1002.5
11 9.06 З 1 4800 м дождь н/о +19.8 +19.3 97 +24 +24 комфорт 1004.7 1002.7
12 9.06 ЮЗ 2 2100 м дождь н/о +19.6 +19.5 99 +23 +23 комфорт 1004.8 1002.8 +25.8 18
13 9.06 З 2 5000 м дождь н/о +19.3 +19.0 98 +22 +22 комфорт 1004.8 1002.8
14 9.06 Ю 1 4700 м дождь н/о +19.2 +19.2 100 +22 +22 комфорт 1004.4 1002.4
15 9.06 З 2 4300 м дождь н/о +18.9 +18.7 99 +21 +21 комфорт 1004.1 1002.1
16 9.06 Ю 2 6000 м слаб. дождь н/о +18.8 +18.5 98 +21 +21 комфорт 1003.8 1001.8
17 9.06 З 3 2700 м слаб. дождь н/о +18.7 +18.5 99 +20 +20 1003.6 1001.6
18 9.06 СЗ 2 2600 м слаб. дождь н/о +18.5 +18.0 97 +20 +20 1003.6 1001.6 21
19 9.06 З 4 3700 м слаб. дождь н/о +18.4 +18.1 98 +19 +19 1003.4 1001.4
20 9.06 З 3 6000 м слаб. дождь н/о +18.3 +17.3 94 +19 +19 1003.8 1001.8
21 9.06 З 3 6000 м слаб. дождь н/о +18.2 +17.4 95 +19 +19 1003.8 1001.8
22 9.06 З 2 9000 м слаб. дождь н/о +18.4 +17.4 94 +20 +20 1004.0 1002.0
23 9.06 З 2 16 км слаб. дождь н/о +18.6 +18.0 96 +20 +20 1004.1 1002.1
00 10.06 З 2 5000 м дождь н/о +18.7 +18.1 96 +21 +21 комфорт 1004.1 1002.1 +18.1 28
01 10.06 Ю 1 7000 м слаб. дождь н/о +19.1 +18.6 97 +23 +23 комфорт 1003.9 1001.9
02 10.06 Ю 2 7000 м слаб. дождь н/о +19.1 +18.1 94 +22 +22 комфорт 1003.8 1001.8
03 10.06 ЮВ 2 3300 м дождь н/о +19.0 +18.4 96 +21 +21 комфорт 1003.6 1001.6
04 10.06 В 1 20 км слаб. дождь н/о +19.6 +17.9 90 +24 +24 комфорт 1003.1 1001.1
05 10.06 В 2 20 км слаб. дождь н/о +21.2 +18.2 83 +25 +25 комфорт 1002.5 1000.5
06 10.06 В 3 20 км в посл. час дождь н/о +21.4 +18.4 83 +26 +26 душно 1002.5 1000.5 5
07 10.06 В 4 20 км н/о +21.6 +18.4 82 +26 +26 душно 1002.1 1000.1
08 10.06 СВ 2 20 км н/о +20.7 +17.9 84 +25 +25 комфорт 1002.6 1000.6
09 10.06 В 1 20 км н/о +20.8 +18.2 85 +26 +26 душно 1002.8 1000.8
10 10.06 З 1 20 км н/о +20.4 +18.4 88 +25 +25 комфорт 1003.5 1001.5
11 10.06 З 2 20 км слаб. дождь н/о +20.0 +19.2 95 +24 +24 комфорт 1003.8 1001.8
12 10.06 З 3 9000 м слаб. дождь н/о +19.5 +18.3 93 +22 +22 комфорт 1004.2 1002.2 +22.5 6
13 10.06 ЮЗ 1 20 км в посл. час дождь н/о +18.6 +17.8 95 +21 +21 комфорт 1004.5 1002.5
14 10.06 З 2 20 км н/о +18.2 +17.6 96 +19 +19 1004.5 1002.5
15 10.06 З 2 20 км {дождь} н/о +18.1 +17.6 97 +19 +19 1004.6 1002.6
16 10.06 ЮЗ 2 20 км н/о +17.8 +17.3 97 +18 +18 1004.5 1002.5
17 10.06 З 1 20 км н/о +17.4 +17.3 99 +18 +18 1004.6 1002.6
18 10.06 З 2 20 км {дождь} н/о +17.7 +17.4 98 +18 +18 1004.8 1002.8 0.5
19 10.06 З 1 20 км н/о +17.7 +17.2 97 +19 +19 1005.1 1003.1
20 10.06 З 2 20 км н/о +18.1 +17.6 97 +19 +19 1005.4 1003.4
21 10.06 З 1 20 км слаб. дождь н/о +18.4 +17.8 96 +20 +20 1005.4 1003.4
22 10.06 ЮЗ 1 20 км в посл. час дождь н/о +19.7 +17.7 88 +24 +24 комфорт 1005.7 1003.7
23 10.06 ЮВ 1 20 км н/о +20.2 +18.2 88 +25 +25 комфорт 1005.7 1003.7
00 11.06 В 2 20 км {дождь} н/о +21.6 +17.0 75 +26 +26 душно 1005.9 1003.9 +17.2 0.5
01 11.06 В 2 20 км н/о +22.3 +16.8 71 +27 +27 душно 1005.8 1003.8
02 11.06 ЮВ 2 4600 м слаб. дождь н/о +21.0 +19.3 90 +26 +26 душно 1006.0 1004.0
03 11.06 В 1 9000 м слаб. дождь н/о +20.6 +19.3 92 +26 +26 душно 1005.9 1003.9
04 11.06 В 3 20 км в посл. час дождь н/о +21.7 +18.9 84 +27 +27 душно 1005.5 1003.5
05 11.06 В 2 18 км н/о +21.5 +18.5 83 +26 +26 душно 1005.4 1003.4
06 11.06 В 2 13 км слаб. дождь н/о +21.4 +18.4 83 +26 +26 душно 1004.9 1002.9 3
07 11.06 СВ 2 13 км слаб. дождь н/о +21.4 +18.2 82 +26 +26 душно 1004.6 1002.6
08 11.06 СВ 2 11 км слаб. дождь н/о +21.0 +18.8 87 +26 +26 душно 1004.3 1002.3
09 11.06 С 3 14 км слаб. дождь н/о +20.6 +18.7 89 +25 +25 комфорт 1005.1 1003.1
10 11.06 СВ 1 2100 м дождь н/о +17.9 +17.4 97 +19 +19 1005.4 1003.4
11 11.06 З 1 4500 м дождь н/о +18.1 +17.8 98 +20 +20 1005.8 1003.8
12 11.06 ЮЗ 1 8000 м в посл. час дождь н/о +17.8 +17.7 99 +19 +19 1005.8 1003.8 +23.2 26
13 11.06 СЗ 1 7000 м дымка н/о +17.5 +17.4 99 +19 +19 1006.8 1004.8
14 11.06 З 1 6000 м дымка н/о +17.3 +17.2 99 +18 +18 1006.4 1004.4
15 11.06 З 3 6000 м дымка н/о +16.8 +16.7 99 +17 +17 1006.1 1004.1
16 11.06 З 2 7000 м дымка н/о +16.5 +16.4 99 +17 +17 1005.8 1003.8
17 11.06 З 2 5000 м дымка н/о +16.1 +16.1 100 +16 +16 1006.0 1004.0
18 11.06 З 2 7000 м дымка н/о +16.1 +16.1 100 +16 +16 1006.1 1004.1
19 11.06 З 3 8000 м дымка н/о +16.3 +16.0 98 +16 +16 1006.7 1004.7
20 11.06 З 1 6000 м дымка н/о +16.5 +16.4 99 +17 +17 1006.9 1004.9
21 11.06 З 1 8000 м дымка н/о +17.3 +16.7 96 +18 +18 1007.2 1005.2
22 11.06 штиль 0 18 км н/о +19.4 +16.5 83 +21 +21 комфорт 1007.2 1005.2
23 11.06 В 2 16 км н/о +20.0 +16.8 82 +23 +23 комфорт 1007.5 1005.5
00 12.06 В 3 20 км н/о +21.9 +16.9 73 +26 +26 душно 1007.4 1005.4 +15.8
01 12.06 В 4 20 км н/о +23.3 +17.5 70 +29 +29 душно 1007.4 1005.4
02 12.06 В 5 20 км н/о +23.6 +18.0 71 +28 +28 душно 1007.2 1005.2
03 12.06 В 5 20 км н/о +23.3 +17.8 71 +29 +29 душно 1007.3 1005.3
04 12.06 В 5 20 км н/о +23.8 +18.5 72 +28 +28 душно 1007.3 1005.3
05 12.06 В 5 20 км н/о +22.5 +18.5 78 +28 +28 душно 1007.2 1005.2
06 12.06 В 4 20 км слаб. дождь н/о +21.6 +18.2 81 +26 +26 душно 1007.3 1005.3 0.0
07 12.06 ЮВ 2 20 км в посл. час дождь н/о +21.8 +17.4 76 +26 +26 душно 1007.3 1005.3
08 12.06 СЗ 2 14 км слаб. дождь н/о +20.6 +18.9 90 +25 +25 комфорт 1007.2 1005.2
09 12.06 СЗ 1 14 км слаб. дождь н/о +20.4 +18.5 89 +25 +25 комфорт 1007.7 1005.7
10 12.06 СЗ 2 12 км слаб. дождь н/о +19.9 +18.9 94 +24 +24 комфорт 1008.4 1006.4
11 12.06 СЗ 2 19 км в посл. час дождь н/о +19.4 +18.2 93 +22 +22 комфорт 1009.2 1007.2
12 12.06 З 2 17 км {дождь} н/о +18.8 +17.8 94 +21 +21 комфорт 1009.8 1007.8 +25.1 1
13 12.06 З 2 16 км н/о +18.7 +17.6 93 +20 +20 1010.2 1008.2
14 12.06 З 2 14 км н/о +18.5 +17.4 93 +20 +20 1010.4 1008.4
15 12.06 З 1 15 км н/о +18.5 +17.4 93 +20 +20 1010.4 1008.4
16 12.06 З 1 14 км н/о +18.2 +17.4 95 +20 +20 1010.3 1008.3
17 12.06 З 3 20 км н/о +18.1 +17.0 93 +18 +18 1010.6 1008.6
18 12.06 С 1 19 км н/о +18.5 +17.2 92 +20 +20 1010.5 1008.5
19 12.06 З 2 13 км н/о +18.1 +17.5 96 +19 +19 1010.7 1008.7
20 12.06 З 1 14 км н/о +17.9 +17.1 95 +19 +19 1011.1 1009.1
21 12.06 штиль 0 20 км н/о +18.9 +16.9 88 +20 +20 1011.4 1009.4
22 12.06 С 1 20 км н/о +19.9 +17.3 85 +24 +24 комфорт 1012.0 1010.0
23 12.06 С 1 20 км н/о +21.5 +16.0 71 +25 +25 комфорт 1012.6 1010.6
00 13.06 ЮВ 1 20 км н/о +22.9 +17.6 72 +28 +28 душно 1012.8 1010.8 +17.4
01 13.06 В 4 20 км н/о +23.6 +17.4 68 +27 +27 жарко 1012.9 1010.9
02 13.06 СВ 4 20 км н/о +24.8 +16.5 60 +28 +28 жарко 1012.6 1010.6
03 13.06 В 6 20 км н/о +25.2 +17.4 62 +29 +29 душно 1012.6 1010.6
04 13.06 В 6 20 км н/о +24.4 +18.4 69 +29 +29 душно 1012.7 1010.7
05 13.06 В 4 20 км н/о +24.2 +18.2 69 +29 +29 душно 1012.5 1010.5
06 13.06 В 5 20 км н/о +24.5 +19.1 72 +29 +29 душно 1012.3 1010.3
07 13.06 В 4 20 км н/о +24.3 +19.4 74 +29 +29 душно 1012.2 1010.2
08 13.06 В 3 20 км н/о +23.9 +19.2 75 +29 +29 душно 1012.1 1010.1
09 13.06 В 2 20 км н/о +22.7 +18.7 78 +28 +28 душно 1012.5 1010.5
10 13.06 В 2 20 км н/о +22.2 +19.2 83 +28 +28 душно 1013.0 1011.0
11 13.06 З 2 20 км н/о +21.8 +19.2 85 +27 +27 душно 1013.2 1011.2
12 13.06 ЮЗ 1 8000 м слаб. дождь н/о +21.2 +19.1 88 +26 +26 душно 1013.5 1011.5 +25.8 0.0
13 13.06 З 3 20 км слаб. дождь н/о +20.2 +19.2 94 +24 +24 комфорт 1013.6 1011.6
14 13.06 З 2 20 км в посл. час дождь н/о +20.1 +19.1 94 +24 +24 комфорт 1013.4 1011.4
15 13.06 ЮЗ 2 18 км {дождь} н/о +20.1 +19.3 95 +24 +24 комфорт 1013.2 1011.2
16 13.06 ЮЗ 1 14 км н/о +20.1 +19.5 96 +25 +25 комфорт 1013.0 1011.0
17 13.06 З 2 16 км н/о +20.2 +19.4 95 +25 +25 комфорт 1012.5 1010.5
18 13.06 С 1 1000 м сильн. дождь н/о +20.0 +19.9 99 +25 +25 комфорт 1012.3 1010.3 6
19 13.06 ЮЗ 1 11 км слаб. дождь н/о +19.9 +19.6 98 +24 +24 комфорт 1012.0 1010.0
20 13.06 СЗ 2 6000 м слаб. дождь н/о +19.8 +19.8 100 +24 +24 комфорт 1012.1 1010.1
21 13.06 Ю 1 14 км слаб. дождь н/о +19.9 +19.4 97 +24 +24 комфорт 1012.1 1010.1
22 13.06 З 1 19 км в посл. час дождь н/о +20.6 +19.6 94 +26 +26 душно 1012.1 1010.1
23 13.06 В 2 15 км слаб. дождь н/о +20.9 +20.1 95 +26 +26 душно 1012.4 1010.4
00 14.06 В 5 19 км в посл. час дождь н/о +21.1 +19.4 90 +26 +26 душно 1012.2 1010.2 +19.7 16
01 14.06 В 7 4800 м слаб. дождь н/о +20.3 +19.7 96 +24 +24 комфорт 1012.1 1010.1
02 14.06 С 1 2400 м дождь н/о +19.7 +19.6 99 +24 +24 комфорт 1011.6 1009.6
03 14.06 С 2 20 км слаб. дождь н/о +20.2 +19.6 96 +25 +25 комфорт 1011.3 1009.3
04 14.06 СЗ 3 6000 м слаб. дождь н/о +20.3 +19.8 97 +25 +25 комфорт 1010.7 1008.7
05 14.06 В 3 18 км слаб. дождь н/о +22.4 +19.0 81 +28 +28 душно 1010.2 1008.2
06 14.06 В 4 15 км в посл. час дождь н/о +23.5 +19.2 77 +28 +28 душно 1009.4 1007.4 24
07 14.06 В 6 1800 м дождь н/о +20.6 +19.8 95 +25 +25 комфорт 1009.2 1007.2
08 14.06 В 5 17 км слаб. дождь н/о +22.5 +18.1 76 +28 +28 душно 1009.3 1007.3
09 14.06 В 5 10 км слаб. дождь н/о +21.5 +18.3 82 +26 +26 душно 1009.2 1007.2
10 14.06 С 2 8000 м слаб. дождь н/о +19.8 +18.3 91 +23 +23 комфорт 1009.5 1007.5
11 14.06 З 2 9000 м слаб. дождь н/о +19.1 +18.5 96 +21 +21 комфорт 1009.3 1007.3
12 14.06 З 2 2900 м дождь н/о +18.2 +17.7 97 +19 +19 1008.7 1006.7 +23.7 72
13 14.06 З 2 4600 м дождь н/о +18.0 +17.7 98 +19 +19 1008.2 1006.2
14 14.06 СЗ 3 6000 м слаб. дождь н/о +18.3 +17.3 94 +19 +19 1007.7 1005.7
15 14.06 ЮВ 3 7000 м слаб. дождь н/о +18.5 +16.7 89 +19 +19 1006.6 1004.6
16 14.06 СЗ 3 2600 м дождь н/о +17.7 +17.4 98 +18 +18 1005.1 1003.1
17 14.06 В 5 3400 м дождь н/о +18.2 +17.7 97 +18 +18 1004.2 1002.2
18 14.06 СВ 2 1900 м дождь н/о +17.9 +17.6 98 +19 +19 1003.2 1001.2 39
19 14.06 СВ 4 4000 м дождь н/о +18.4 +17.8 96 +19 +19 1002.7 1000.7
20 14.06 СВ 5 5000 м дождь н/о +19.1 +18.1 94 +21 +21 комфорт 1001.4 999.4
21 14.06 СВ 6 3000 м дождь н/о +19.3 +18.7 96 +21 +21 комфорт 1000.7 998.7
22 14.06 СВ 3 4400 м слаб. дождь н/о +18.7 +17.6 93 +20 +20 1000.6 998.6
23 14.06 С 3 4600 м слаб. дождь н/о +18.4 +16.9 91 +19 +19 999.2 997.2
00 15.06 СЗ 2 3000 м дождь н/о +18.1 +17.5 96 +19 +19 998.8 996.8 +17.6 72
01 15.06 СЗ 2 4700 м слаб. дождь н/о +18.4 +17.4 94 +20 +20 997.7 995.7
02 15.06 ЮЗ 2 17 км слаб. дождь н/о +18.5 +17.9 96 +20 +20 996.9 994.9
03 15.06 З 2 13 км слаб. дождь н/о +19.0 +18.2 95 +21 +21 комфорт 994.9 992.9
04 15.06 З 2 4400 м слаб. дождь н/о +19.1 +18.6 97 +21 +21 комфорт 993.3 991.3
05 15.06 ЮЗ 3 2700 м дождь н/о +19.0 +18.5 97 +21 +21 комфорт 991.3 989.3
06 15.06 Ю 2 1500 м сильн. дождь н/о +19.6 +19.5 99 +23 +23 комфорт 989.2 987.2 24
07 15.06 З 2 2800 м дождь н/о +20.3 +20.3 100 +25 +25 комфорт 986.9 985.0
08 15.06 З 3 6000 м слаб. дождь н/о +21.7 +21.2 97 +28 +28 душно 986.2 984.3
09 15.06 В 2 6000 м слаб. дождь н/о +22.0 +21.5 97 +29 +29 очень
душно
986.9 985.0
10 15.06 ЮВ 1 20 км в посл. час дождь н/о +21.0 +20.3 96 +27 +27 душно 987.2 985.3
11 15.06 С 2 20 км н/о +20.3 +19.7 96 +25 +25 комфорт 988.2 986.3
12 15.06 В 1 20 км {дождь} н/о +19.7 +19.4 98 +24 +24 комфорт 988.9 986.9 +22.4 35
13 15.06 СЗ 2 20 км н/о +19.3 +18.8 97 +22 +22 комфорт 989.2 987.2
14 15.06 З 2 20 км н/о +18.9 +18.7 99 +21 +21 комфорт 989.6 987.6
15 15.06 З 2 20 км н/о +18.8 +18.5 98 +21 +21 комфорт 990.3 988.3
16 15.06 Ю 2 20 км н/о +18.9 +17.4 91 +21 +21 комфорт 991.2 989.2
17 15.06 В 2 20 км н/о +20.1 +16.4 79 +23 +23 комфорт 991.8 989.8
18 15.06 З 2 20 км н/о +21.6 +15.7 69 +25 +25 комфорт 992.8 990.9
19 15.06 З 2 20 км н/о +19.2 +16.8 86 +22 +22 комфорт 993.9 991.9
20 15.06 ЮВ 2 20 км н/о +19.9 +15.8 77 +23 +23 комфорт 995.1 993.1
21 15.06 Ю 3 20 км н/о +22.1 +13.5 58 +25 +25 комфорт 996.3 994.3

 

Местоположение метеостанции Овасе (Япония): широта 34.07 долгота 136.20 высота над уровнем моря 27 м.

В архиве по умолчанию представлена погода в Овасе за последнюю неделю. Архивные данные за месяц целиком и за предыдущие месяцы, начиная с января 2011 года, Вы можете получить, выбрав интересующий диапазон дат из раскрывающегося списка и нажав кнопку "Ввод!".


*Определитесь, кто Вы:
робот инопланетянин человек

Внимание! Время в таблицах - всемирное. Для получения местного времени необходимо прибавить поправку, которая равна 9 ч.

Смотрите также архив погоды в соседних городах и на ближайших метеорологических станциях:

Погода в Наре (Япония) (78 км)
Погода в Уэно (Япония) (78 км)
Погода в Цу (Япония) (79 км)
Погода в Сиономисаки (Япония) (80 км)
Погода в Осаке (Япония) (93 км)
Погода в Вакаяме (Япония) (97 км)
Погода в Йоккаити (Япония) (102 км)
Погода в Ирако (Япония) (103 км)
Погода в Киото (Япония) (114 км)
Погода в Кобе (Япония) (115 км)

Пояснения к столбцам:

Ветер - указаны скорость ветра в м/с - средняя за 10 мин, порывы в срок и между сроками (в фигурных скобках) и направление, откуда дует ветер: С - северный, СВ - северо-восточный, В - восточный, ЮВ - юго-восточный, Ю - южный, ЮЗ - юго-западный, З - западный, СЗ - северо-западный.
Видимость - горизонтальная дальность видимости в метрах или километрах. При видимости от 1 до 10 км при отсутствии осадков обычно наблюдается дымка, при ухудшении видимости до 1 км и менее - туман. В сухую погоду видимость может ухудшаться дымом, пылью или мглою.
Явления - указаны атмосферные явления, наблюдавшиеся в срок или в последний час перед сроком; фигурными скобками обозначены явления, наблюдавшиеся между сроками (за 1-3 часа до срока); квадратными скобками обозначены град или гололедные отложения с указанием их диаметра в мм.
Облачность - указаны через наклонную черту общая и нижняя облачность в баллах и высота нижней границы облаков в метрах; квадратными скобками обозначены формы облаков: Ci - перистые, Cs - перисто-слоистые, Cc - перисто-кучевые, Ac - высококучевые, As - высокослоистые, Sc - слоисто-кучевые, Ns - слоисто-дождевые, Cu - кучевые, Cb - кучево-дождевые. Подробнее классификацию облаков см. в Атласе облаков (PDF).
T - Температура воздуха - температура, измеренная на высоте 2 м над землей.
Td - Температура точки росы - температура, при понижении до которой содержащийся в воздухе водяной пар достигнет насыщения.
f - Относительная влажность воздуха - влажноcть воздуха, измеренная на высоте 2 м над землей.
Te - Эффективная температура - температура, которую ощущает одетый по сезону человек в тени. Характеристика душности погоды. При расчете учитывается влияние влажности воздуха и скорости ветра на теплоощущения человека.
Tes - Эффективная температура на солнце - температура, которую ощущает человек, с поправкой на солнечный нагрев. Характеристика знойности погоды. Зависит от высоты солнца над горизонтом, облачности и скорости ветра. Ночью, в пасмурную погоду, а также при ветре 12 м/с и более поправка равна нулю.
P - Атмосферное давление - приведенное к уровню моря атмосферное давление.
Po - Атмосферное давление - измеренное на уровне метеостанции атмосферное давление.
Tmin - Минимальная температура - минимум температуры воздуха на высоте 2 м над землей.
Tmax - Максимальная температура - максимум температуры воздуха на высоте 2 м над землей.
R - Количество осадков - Количество выпавших осадков за период времени, мм. При наведении курсора мыши на число - период времени, за который выпало указанное количество осадков.
R24 - Количество осадков - Количество выпавших осадков за 24 часа, мм.
S - Снежный покров - Высота снежного покрова, см. При наведении курсора мыши на число - состояние снежного покрова и степень покрытия местности в баллах.